When you browse on this site, cookies collect data to enhance your experience and personalize the content and advertising you see.
Visit our Privacy Policy to learn more. By continuing to use the site, you agree to this use of cookies and data.
  • en France
  • Liste des pays
  • À 7 jours
  • Température de l'eau
  • Carte satellitaire
  • Carte météo
  • Widgets météo
  • user-avatar
    Se connecter

    Météo par heure à Cairns

    Ce jour, 12 Décembre, Mercredi

    Heure Température Précipitation Vent Pression Humidité
    00:00 +27°C° 0 mm 2 m/s 756 mmHg 96%
    01:00 +27°C° 0 mm 2 m/s 756 mmHg 96%
    02:00 +27°C° 0 mm 2 m/s 756 mmHg 97%
    03:00 +27°C° 0 mm 2 m/s 756 mmHg 97%
    04:00 +27°C° 0 mm 2 m/s 755 mmHg 97%
    05:00 +27°C° 0.1 mm 2 m/s 755 mmHg 95%
    06:00 +28°C° 0.1 mm 2 m/s 756 mmHg 94%
    07:00 +28°C° 0.1 mm 2 m/s 756 mmHg 92%
    08:00 +30°C° 0.1 mm 2 m/s 756 mmHg 85%
    09:00 +31°C° 0.1 mm 2 m/s 756 mmHg 78%
    10:00 +34°C° 0 mm 2 m/s 757 mmHg 74%
    11:00 +34°C° 1.3 mm 2 m/s 756 mmHg 75%
    12:00 +34°C° 1.3 mm 2 m/s 756 mmHg 77%
    13:00 +34°C° 1.3 mm 2 m/s 755 mmHg 78%
    14:00 +32°C° 0.4 mm 2 m/s 755 mmHg 79%
    15:00 +32°C° 0.4 mm 2 m/s 755 mmHg 80%
    16:00 +32°C° 0.4 mm 2 m/s 755 mmHg 81%
    17:00 +31°C° 0.2 mm 1 m/s 755 mmHg 86%
    18:00 +30°C° 0.2 mm 1 m/s 755 mmHg 90%
    19:00 +29°C° 0.2 mm 1 m/s 755 mmHg 94%
    20:00 +28°C° 0.1 mm 1 m/s 755 mmHg 95%
    21:00 +26°C° 0.1 mm 0 m/s 756 mmHg 96%
    22:00 +26°C° 0.1 mm 0 m/s 756 mmHg 97%
    23:00 +26°C° 0 mm 0 m/s 756 mmHg 97%

    Demain, 13 Décembre, Jeudi

    Heure Température Précipitation Vent Pression Humidité
    00:00 +26°C° 0 mm 0 m/s 755 mmHg 97%
    01:00 +26°C° 0 mm 0 m/s 755 mmHg 98%
    02:00 +25°C° 0 mm 0 m/s 755 mmHg 98%
    03:00 +25°C° 0 mm 0 m/s 755 mmHg 98%
    04:00 +25°C° 0 mm 0 m/s 755 mmHg 98%
    05:00 +26°C° 0 mm 0 m/s 755 mmHg 96%
    06:00 +26°C° 0 mm 0 m/s 755 mmHg 93%
    07:00 +27°C° 0 mm 0 m/s 755 mmHg 91%
    08:00 +31°C° 0 mm 1 m/s 756 mmHg 83%
    09:00 +32°C° 0 mm 1 m/s 756 mmHg 75%
    10:00 +35°C° 0 mm 2 m/s 756 mmHg 67%
    11:00 +35°C° 0.4 mm 2 m/s 755 mmHg 69%
    12:00 +35°C° 0.4 mm 3 m/s 755 mmHg 71%
    13:00 +35°C° 0.4 mm 3 m/s 754 mmHg 73%
    14:00 +34°C° 0.6 mm 3 m/s 754 mmHg 77%
    15:00 +33°C° 0.6 mm 3 m/s 754 mmHg 81%
    16:00 +33°C° 0.6 mm 3 m/s 753 mmHg 84%
    17:00 +31°C° 1.7 mm 3 m/s 754 mmHg 87%
    18:00 +30°C° 1.7 mm 3 m/s 754 mmHg 90%
    19:00 +29°C° 1.7 mm 3 m/s 754 mmHg 92%
    20:00 +29°C° 0.3 mm 3 m/s 754 mmHg 93%
    21:00 +28°C° 0.3 mm 3 m/s 754 mmHg 95%
    22:00 +28°C° 0.3 mm 3 m/s 754 mmHg 96%
    23:00 +28°C° 0 mm 3 m/s 754 mmHg 96%

    Après-demain, 14 Décembre, Vendredi

    Heure Température Précipitation Vent Pression Humidité
    00:00 +28°C° 0 mm 3 m/s 753 mmHg 96%
    01:00 +28°C° 0 mm 3 m/s 753 mmHg 96%
    02:00 +28°C° 0 mm 3 m/s 752 mmHg 96%
    03:00 +28°C° 0 mm 2 m/s 752 mmHg 96%
    04:00 +27°C° 0 mm 2 m/s 751 mmHg 96%
    05:00 +28°C° 0.3 mm 2 m/s 752 mmHg 95%
    06:00 +28°C° 0.3 mm 2 m/s 753 mmHg 94%
    07:00 +29°C° 0.3 mm 3 m/s 753 mmHg 93%
    08:00 +30°C° 0.5 mm 3 m/s 753 mmHg 89%
    09:00 +32°C° 0.5 mm 4 m/s 753 mmHg 84%
    10:00 +33°C° 0.5 mm 4 m/s 753 mmHg 80%
    11:00 +34°C° 0.4 mm 5 m/s 752 mmHg 78%
    12:00 +34°C° 0.4 mm 5 m/s 752 mmHg 75%
    13:00 +35°C° 0.4 mm 5 m/s 751 mmHg 72%
    14:00 +34°C° 0.3 mm 5 m/s 751 mmHg 77%
    15:00 +33°C° 0.3 mm 5 m/s 751 mmHg 81%
    16:00 +32°C° 0.3 mm 5 m/s 750 mmHg 86%
    17:00 +30°C° 0.7 mm 5 m/s 751 mmHg 89%
    18:00 +30°C° 0.7 mm 5 m/s 751 mmHg 92%
    19:00 +29°C° 0.7 mm 5 m/s 752 mmHg 95%
    20:00 +29°C° 0.9 mm 5 m/s 752 mmHg 95%
    21:00 +29°C° 0.9 mm 5 m/s 752 mmHg 95%
    22:00 +29°C° 0.9 mm 5 m/s 753 mmHg 95%
    23:00 +29°C° 1.4 mm 6 m/s 752 mmHg 95%

    15 Décembre, Samedi

    Heure Température Précipitation Vent Pression Humidité
    00:00 +29°C° 1.4 mm 7 m/s 751 mmHg 95%
    01:00 +28°C° 1.4 mm 7 m/s 750 mmHg 95%
    02:00 +28°C° 0.9 mm 8 m/s 749 mmHg 95%
    03:00 +29°C° 0.9 mm 8 m/s 749 mmHg 95%
    04:00 +29°C° 0.9 mm 9 m/s 748 mmHg 94%
    05:00 +29°C° 1.3 mm 8 m/s 749 mmHg 94%
    06:00 +29°C° 1.3 mm 8 m/s 750 mmHg 93%
    07:00 +29°C° 1.3 mm 8 m/s 750 mmHg 92%
    08:00 +29°C° 0.1 mm 7 m/s 751 mmHg 89%
    09:00 +30°C° 0.1 mm 7 m/s 751 mmHg 86%
    10:00 +30°C° 0.1 mm 7 m/s 751 mmHg 83%
    11:00 +32°C° 0 mm 6 m/s 751 mmHg 77%
    12:00 +34°C° 0 mm 6 m/s 750 mmHg 72%
    13:00 +35°C° 0 mm 6 m/s 750 mmHg 66%
    14:00 +35°C° 0 mm 6 m/s 750 mmHg 63%
    15:00 +36°C° 0 mm 5 m/s 750 mmHg 60%
    16:00 +36°C° 0 mm 5 m/s 749 mmHg 57%
    17:00 +34°C° 0 mm 5 m/s 750 mmHg 60%
    18:00 +33°C° 0 mm 4 m/s 751 mmHg 63%
    19:00 +30°C° 0 mm 4 m/s 751 mmHg 66%
    20:00 +29°C° 0 mm 3 m/s 752 mmHg 66%
    21:00 +28°C° 0 mm 3 m/s 752 mmHg 65%
    22:00 +27°C° 0 mm 3 m/s 752 mmHg 65%
    23:00 +27°C° 0 mm 3 m/s 752 mmHg 64%

    16 Décembre, Dimanche

    Heure Température Précipitation Vent Pression Humidité
    00:00 +26°C° 0 mm 3 m/s 752 mmHg 63%
    01:00 +26°C° 0 mm 3 m/s 752 mmHg 62%
    02:00 +25°C° 0 mm 3 m/s 752 mmHg 61%
    03:00 +25°C° 0 mm 3 m/s 752 mmHg 59%
    04:00 +25°C° 0 mm 3 m/s 752 mmHg 58%
    05:00 +25°C° 0 mm 3 m/s 753 mmHg 58%
    06:00 +25°C° 0 mm 3 m/s 754 mmHg 59%
    07:00 +25°C° 0 mm 3 m/s 754 mmHg 60%
    08:00 +28°C° 0 mm 3 m/s 754 mmHg 52%
    09:00 +31°C° 0 mm 3 m/s 754 mmHg 43%
    10:00 +35°C° 0 mm 2 m/s 755 mmHg 35%
    11:00 +36°C° 0 mm 2 m/s 754 mmHg 31%
    12:00 +37°C° 0 mm 2 m/s 754 mmHg 28%
    13:00 +38°C° 0 mm 3 m/s 753 mmHg 25%
    14:00 +38°C° 0 mm 3 m/s 753 mmHg 26%
    15:00 +38°C° 0 mm 3 m/s 752 mmHg 28%
    16:00 +38°C° 0 mm 3 m/s 752 mmHg 29%
    17:00 +35°C° 0 mm 3 m/s 752 mmHg 38%
    18:00 +33°C° 0 mm 3 m/s 752 mmHg 46%
    19:00 +29°C° 0 mm 3 m/s 753 mmHg 54%
    20:00 +28°C° 0 mm 3 m/s 753 mmHg 54%
    21:00 +28°C° 0 mm 3 m/s 754 mmHg 54%
    22:00 +27°C° 0 mm 3 m/s 754 mmHg 54%
    23:00 +26°C° 0 mm 2 m/s 754 mmHg 53%

    17 Décembre, Lundi

    Heure Température Précipitation Vent Pression Humidité
    00:00 +26°C° 0 mm 2 m/s 754 mmHg 51%
    01:00 +26°C° 0 mm 2 m/s 753 mmHg 50%
    02:00 +25°C° 0 mm 2 m/s 753 mmHg 49%
    03:00 +25°C° 0 mm 2 m/s 753 mmHg 48%
    04:00 +25°C° 0 mm 2 m/s 753 mmHg 47%
    05:00 +25°C° 0 mm 2 m/s 754 mmHg 49%
    06:00 +26°C° 0 mm 2 m/s 754 mmHg 51%
    07:00 +26°C° 0 mm 2 m/s 755 mmHg 53%
    08:00 +29°C° 0 mm 2 m/s 755 mmHg 46%
    09:00 +34°C° 0 mm 2 m/s 755 mmHg 38%
    10:00 +36°C° 0 mm 1 m/s 755 mmHg 31%
    11:00 +39°C° 0 mm 1 m/s 754 mmHg 29%
    12:00 +40°C° 0 mm 2 m/s 754 mmHg 26%
    13:00 +42°C° 0 mm 2 m/s 753 mmHg 24%
    14:00 +41°C° 0 mm 2 m/s 753 mmHg 25%
    15:00 +40°C° 0 mm 3 m/s 753 mmHg 26%
    16:00 +39°C° 0 mm 3 m/s 752 mmHg 28%
    17:00 +36°C° 0 mm 3 m/s 753 mmHg 38%
    18:00 +32°C° 0 mm 2 m/s 753 mmHg 49%
    19:00 +29°C° 0 mm 2 m/s 753 mmHg 60%
    20:00 +29°C° 0 mm 2 m/s 754 mmHg 59%
    21:00 +28°C° 0 mm 2 m/s 754 mmHg 59%
    22:00 +27°C° 0 mm 2 m/s 755 mmHg 58%
    23:00 +27°C° 0 mm 2 m/s 755 mmHg 56%
    Voir plus